User: anonymous   Login
Location: Rounton
(54.4000°N, 1.3500°W)
Time: 16:30:53
(UTC+01:00)
Language:

deb Delta 126 - Orbit

View from above orbital plane
View from above orbital plane
View from above satellite
View from above satellite

Ground track
Ground track

The orbit data is extracted from the following two-line orbital elements,

1 10760U 76077BH  22183.81018913  .00000444  00000-0  25059-2 0  9993
2 10760 101.4821  32.6102 0543613 323.4400  96.5596 12.30859183454301
Epoch (UTC): 02 July 2022 19:26:40
Eccentricity: 0.0543613
inclination: 101.4821°
perigee height: 1115 km
apogee height: 1976 km
right ascension of ascending node: 32.6102°
argument of perigee: 323.4400°
revolutions per day: 12.30859183
mean anomaly at epoch: 96.5596°
orbit number at epoch: 45430

The dashed part of the orbit path shows where the satellite is in the earth's shadow,  

DLR